Regional Weather Roundup
Issued by NWS Little Rock, AR

Home | Current Version | Previous Version | Graphics & Text | Print | Product List | Glossary On
Versions: 1 2 3 4 5 6 7 8 9 10 11 12 13 14 15 16 17 18 19 20 21 22 23 24 25 26 27 28 29 30 31 32
000
ASUS44 KLZK 171105
RWRLZK

WEATHER ROUNDUP FOR ARKANSAS
NATIONAL WEATHER SERVICE LITTLE ROCK AR
500 AM CST TUE JAN 17 2017

NOTE: "FAIR" INDICATES FEW OR NO CLOUDS BELOW 12,000 FEET WITH NO
SIGNIFICANT WEATHER AND/OR OBSTRUCTIONS TO VISIBILITY.

ARZ001-003-010-029-171200-
NORTHWEST ARKANSAS

CITY           SKY/WX    TMP DP  RH WIND       PRES   REMARKS
FAYETTEVILLE   CLOUDY    37  35  92 SW7       30.07R
FORT SMITH     MOCLDY    36  33  89 W8        30.11S
HARRISON       CLOUDY    39  35  86 SW7       30.03S
BENTONVILLE    CLOUDY   N/A N/A N/A W7        30.06R
ROGERS         CLOUDY    39  35  86 W7        30.06R
SILOAM SPGS    CLOUDY    37  34  87 W8        30.07R
HIGHFILL       CLOUDY    38  36  92 W6        30.06R
$$

ARZ004-005-016-171200-
NORTH CENTRAL ARKANSAS

CITY           SKY/WX    TMP DP  RH WIND       PRES   REMARKS
BATESVILLE     CLOUDY    46  43  87 W8        30.06R
FLIPPIN        PTCLDY    39  32  75 W6        30.03R
MTN HOME       PTCLDY    38  36  92 VRB5      30.03S
$$

ARZ040-041-171200-
WEST CENTRAL ARKANSAS

CITY           SKY/WX    TMP DP  RH WIND       PRES   REMARKS
MENA           CLOUDY    45  43  93 W8        30.09R
MOUNT IDA      MOCLDY    46  42  86 N6        30.03F
$$

ARZ009-017-025-026-028-171200-
NORTHEAST ARKANSAS

CITY           SKY/WX    TMP DP  RH WIND       PRES   REMARKS
JONESBORO      CLOUDY    50  44  80 W6        30.02S
NEWPORT        CLOUDY    49  45  86 MISG      30.05R
WALNUT RIDGE   CLEAR     45  37  76 W8        30.03R
BLYTHEVILLE    CLOUDY    55  50  83 NW13      30.01R
$$

ARZ022-023-033-042-044-171200-
CENTRAL ARKANSAS

CITY           SKY/WX    TMP DP  RH WIND       PRES   REMARKS
LITTLE ROCK    CLOUDY    49  46  90 NW7       30.08F
JACKSONVILLE   CLOUDY    49  44  84 W7        30.05F
SEARCY         LGT RAIN  49  41  74 W9        30.07R
HOT SPRINGS    LGT RAIN  49  46  90 CALM      30.07S
RUSSELLVILLE   PTCLDY    42  37  82 SW5       30.08R
CLINTON        FAIR      41  39  93 CALM      30.07R
$$

ARZ036-171200-
EAST ARKANSAS

CITY           SKY/WX    TMP DP  RH WIND       PRES   REMARKS
WEST MEMPHIS   CLOUDY    53  32  44 VRB5      30.04R
$$

ARZ050-053-066-070-073-171200-
SOUTHWEST ARKANSAS

CITY           SKY/WX    TMP DP  RH WIND       PRES   REMARKS
ARKADELPHIA    CLOUDY    51  49  92 CALM      30.08F
CAMDEN         LGT RAIN  54  48  82 CALM      30.09S
TEXARKANA      LGT RAIN  50  50 100 CALM      30.09S
EL DORADO      CLOUDY    54  52  93 NW5       30.09F
DE QUEEN       CLOUDY    47  43  86 NW6       30.08F
$$

ARZ056-057-069-171200-
SOUTHEAST ARKANSAS

CITY           SKY/WX    TMP DP  RH WIND       PRES   REMARKS
PINE BLUFF     CLOUDY    54  50  86 W12       30.08S
STUTTGART      CLOUDY    52  45  76 NW7       30.07F
MONTICELLO     CLOUDY    56  54  93 W6        30.07S

$$






USA.gov is the U.S. government's official web portal to all federal, state and local government web resources and services.